• In Czech Republic
  • List of Countries
  • For 7 days
  • Water Temperature
  • Satellite Maps
  • Weather Map
  • Weather Widgets
  • user-avatar
    Login

    Hourly Weather San Bernabe Amaxac de Guerrero

    Today, 19 January, Friday

    Time Temperature Precipitation Wind Pressure Humidity
    00:00 +8°C° 0 mm 1 mps 575 mmHg 67%
    01:00 +8°C° 0 mm 1 mps 574 mmHg 65%
    02:00 +7°C° 0 mm 1 mps 574 mmHg 64%
    03:00 +7°C° 0 mm 1 mps 574 mmHg 63%
    04:00 +7°C° 0 mm 1 mps 574 mmHg 63%
    05:00 +6°C° 0 mm 1 mps 574 mmHg 71%
    06:00 +8°C° 0 mm 1 mps 575 mmHg 66%
    07:00 +9°C° 0 mm 1 mps 575 mmHg 62%
    08:00 +11°C° 0 mm 1 mps 576 mmHg 57%
    09:00 +13°C° 0 mm 1 mps 577 mmHg 50%
    10:00 +15°C° 0 mm 2 mps 577 mmHg 43%
    11:00 +17°C° 0 mm 3 mps 578 mmHg 36%
    12:00 +17°C° 0 mm 3 mps 577 mmHg 35%
    13:00 +18°C° 0 mm 3 mps 577 mmHg 34%
    14:00 +18°C° 0 mm 4 mps 577 mmHg 33%
    15:00 +17°C° 0 mm 3 mps 576 mmHg 38%
    16:00 +16°C° 0 mm 3 mps 575 mmHg 43%
    17:00 +15°C° 0 mm 2 mps 575 mmHg 48%
    18:00 +14°C° 0 mm 2 mps 574 mmHg 52%
    19:00 +12°C° 0 mm 2 mps 574 mmHg 57%
    20:00 +11°C° 0 mm 1 mps 574 mmHg 61%
    21:00 +11°C° 0 mm 1 mps 574 mmHg 64%
    22:00 +10°C° 0 mm 1 mps 574 mmHg 67%
    23:00 +10°C° 0 mm 1 mps 574 mmHg 70%

    Tomorrow, 20 January, Saturday

    Time Temperature Precipitation Wind Pressure Humidity
    00:00 +9°C° 0 mm 1 mps 573 mmHg 72%
    01:00 +9°C° 0 mm 1 mps 573 mmHg 74%
    02:00 +9°C° 0 mm 1 mps 573 mmHg 75%
    03:00 +8°C° 0 mm 1 mps 573 mmHg 75%
    04:00 +8°C° 0 mm 1 mps 573 mmHg 75%
    05:00 +8°C° 0 mm 1 mps 573 mmHg 75%
    06:00 +10°C° 0 mm 1 mps 574 mmHg 68%
    07:00 +11°C° 0 mm 1 mps 575 mmHg 61%
    08:00 +13°C° 0 mm 1 mps 576 mmHg 55%
    09:00 +14°C° 0 mm 1 mps 576 mmHg 47%
    10:00 +16°C° 0 mm 1 mps 577 mmHg 40%
    11:00 +19°C° 0 mm 1 mps 578 mmHg 33%
    12:00 +18°C° 0 mm 2 mps 577 mmHg 32%
    13:00 +19°C° 0 mm 2 mps 577 mmHg 30%
    14:00 +19°C° 0 mm 3 mps 576 mmHg 29%
    15:00 +18°C° 0 mm 3 mps 576 mmHg 34%
    16:00 +17°C° 0 mm 2 mps 575 mmHg 39%
    17:00 +16°C° 0 mm 2 mps 575 mmHg 43%
    18:00 +15°C° 0 mm 2 mps 575 mmHg 47%
    19:00 +14°C° 0 mm 1 mps 575 mmHg 52%
    20:00 +12°C° 0 mm 1 mps 575 mmHg 56%
    21:00 +12°C° 0 mm 1 mps 574 mmHg 56%
    22:00 +11°C° 0 mm 1 mps 574 mmHg 56%
    23:00 +11°C° 0 mm 1 mps 574 mmHg 56%

    Day after tomorrow, 21 January, Sunday

    Time Temperature Precipitation Wind Pressure Humidity
    00:00 +11°C° 0 mm 1 mps 574 mmHg 58%
    01:00 +10°C° 0 mm 1 mps 573 mmHg 60%
    02:00 +10°C° 0 mm 1 mps 573 mmHg 62%
    03:00 +10°C° 0 mm 1 mps 573 mmHg 64%
    04:00 +9°C° 0 mm 1 mps 573 mmHg 67%
    05:00 +9°C° 0 mm 1 mps 572 mmHg 69%
    06:00 +11°C° 0 mm 1 mps 573 mmHg 64%
    07:00 +12°C° 0 mm 1 mps 575 mmHg 59%
    08:00 +14°C° 0 mm 1 mps 576 mmHg 54%
    09:00 +16°C° 0 mm 1 mps 576 mmHg 45%
    10:00 +19°C° 0 mm 1 mps 577 mmHg 36%
    11:00 +19°C° 0 mm 2 mps 577 mmHg 27%
    12:00 +20°C° 0 mm 2 mps 577 mmHg 25%
    13:00 +21°C° 0 mm 2 mps 576 mmHg 24%
    14:00 +21°C° 0 mm 3 mps 576 mmHg 22%
    15:00 +20°C° 0 mm 2 mps 575 mmHg 27%
    16:00 +19°C° 0 mm 2 mps 575 mmHg 32%
    17:00 +17°C° 0 mm 2 mps 574 mmHg 37%
    18:00 +16°C° 0 mm 1 mps 574 mmHg 41%
    19:00 +14°C° 0 mm 1 mps 574 mmHg 45%
    20:00 +13°C° 0 mm 1 mps 574 mmHg 49%
    21:00 +13°C° 0 mm 1 mps 574 mmHg 49%
    22:00 +12°C° 0 mm 1 mps 574 mmHg 49%
    23:00 +12°C° 0 mm 1 mps 574 mmHg 49%

    22 January, Monday

    Time Temperature Precipitation Wind Pressure Humidity
    00:00 +12°C° 0 mm 1 mps 573 mmHg 50%
    01:00 +11°C° 0 mm 1 mps 573 mmHg 51%
    02:00 +11°C° 0 mm 1 mps 572 mmHg 51%
    03:00 +11°C° 0 mm 1 mps 573 mmHg 52%
    04:00 +10°C° 0 mm 1 mps 573 mmHg 53%
    05:00 +10°C° 0 mm 1 mps 573 mmHg 54%
    06:00 +11°C° 0 mm 1 mps 574 mmHg 51%
    07:00 +13°C° 0 mm 1 mps 575 mmHg 48%
    08:00 +14°C° 0 mm 1 mps 576 mmHg 45%
    09:00 +16°C° 0 mm 2 mps 577 mmHg 42%
    10:00 +18°C° 0 mm 2 mps 578 mmHg 38%
    11:00 +19°C° 0 mm 3 mps 578 mmHg 35%
    12:00 +20°C° 0 mm 3 mps 578 mmHg 37%
    13:00 +20°C° 0 mm 3 mps 577 mmHg 40%
    14:00 +20°C° 0 mm 4 mps 576 mmHg 42%
    15:00 +18°C° 0 mm 4 mps 576 mmHg 49%
    16:00 +17°C° 0 mm 4 mps 575 mmHg 56%
    17:00 +14°C° 0 mm 4 mps 575 mmHg 64%
    18:00 +13°C° 0 mm 4 mps 575 mmHg 69%
    19:00 +12°C° 0 mm 4 mps 575 mmHg 74%
    20:00 +11°C° 0 mm 3 mps 575 mmHg 79%
    21:00 +11°C° 0 mm 3 mps 575 mmHg 81%
    22:00 +10°C° 0 mm 3 mps 575 mmHg 83%
    23:00 +10°C° 0 mm 2 mps 575 mmHg 85%

    23 January, Tuesday

    Time Temperature Precipitation Wind Pressure Humidity
    00:00 +9°C° 0 mm 2 mps 574 mmHg 86%
    01:00 +9°C° 0 mm 2 mps 574 mmHg 86%
    02:00 +9°C° 0 mm 2 mps 573 mmHg 87%
    03:00 +8°C° 0 mm 2 mps 573 mmHg 87%
    04:00 +8°C° 0 mm 2 mps 573 mmHg 88%
    05:00 +7°C° 0 mm 2 mps 573 mmHg 88%
    06:00 +9°C° 0 mm 2 mps 574 mmHg 81%
    07:00 +10°C° 0 mm 2 mps 575 mmHg 75%
    08:00 +12°C° 0 mm 2 mps 576 mmHg 68%
    09:00 +14°C° 0 mm 2 mps 577 mmHg 61%
    10:00 +16°C° 0 mm 2 mps 577 mmHg 54%
    11:00 +18°C° 0 mm 2 mps 578 mmHg 46%
    12:00 +18°C° 0 mm 3 mps 577 mmHg 45%
    13:00 +19°C° 0 mm 3 mps 577 mmHg 44%
    14:00 +19°C° 0 mm 3 mps 576 mmHg 42%
    15:00 +18°C° 0 mm 3 mps 576 mmHg 47%
    16:00 +17°C° 0 mm 3 mps 576 mmHg 51%
    17:00 +16°C° 0 mm 3 mps 575 mmHg 55%
    18:00 +15°C° 0 mm 2 mps 575 mmHg 62%
    19:00 +14°C° 0 mm 2 mps 575 mmHg 69%
    20:00 +13°C° 0 mm 1 mps 575 mmHg 75%
    21:00 +12°C° 0 mm 1 mps 575 mmHg 78%
    22:00 +12°C° 0 mm 1 mps 575 mmHg 80%
    23:00 +11°C° 0 mm 1 mps 575 mmHg 83%

    24 January, Wednesday

    Time Temperature Precipitation Wind Pressure Humidity
    00:00 +11°C° 0 mm 1 mps 574 mmHg 84%
    01:00 +10°C° 0 mm 1 mps 574 mmHg 86%
    02:00 +10°C° 0 mm 1 mps 573 mmHg 87%
    03:00 +10°C° 0 mm 1 mps 573 mmHg 87%
    04:00 +9°C° 0 mm 1 mps 573 mmHg 87%
    05:00 +9°C° 0 mm 1 mps 573 mmHg 87%
    06:00 +11°C° 0 mm 1 mps 574 mmHg 79%
    07:00 +12°C° 0 mm 1 mps 575 mmHg 72%
    08:00 +13°C° 0 mm 1 mps 576 mmHg 64%
    09:00 +15°C° 0 mm 1 mps 577 mmHg 57%
    10:00 +18°C° 0 mm 1 mps 577 mmHg 49%
    11:00 +20°C° 0 mm 1 mps 578 mmHg 41%
    12:00 +20°C° 0.1 mm 1 mps 577 mmHg 41%
    13:00 +19°C° 0.1 mm 2 mps 576 mmHg 40%
    14:00 +20°C° 0.1 mm 2 mps 576 mmHg 39%
    15:00 +19°C° 0.3 mm 2 mps 576 mmHg 45%
    16:00 +18°C° 0.3 mm 2 mps 575 mmHg 51%
    17:00 +17°C° 0.3 mm 3 mps 575 mmHg 57%
    18:00 +15°C° 0.6 mm 2 mps 575 mmHg 64%
    19:00 +14°C° 0.6 mm 2 mps 575 mmHg 70%
    20:00 +13°C° 0.6 mm 2 mps 575 mmHg 76%
    21:00 +12°C° 0.4 mm 3 mps 575 mmHg 78%
    22:00 +11°C° 0.4 mm 3 mps 575 mmHg 80%
    23:00 +11°C° 0.4 mm 3 mps 575 mmHg 81%
    Show more